TimeEST,TemperatureF,Dew PointF,Humidity,Sea Level PressureIn,VisibilityMPH,Wind Direction,Wind SpeedMPH,Gust SpeedMPH,PrecipitationIn,Events,Conditions,WindDirDegrees,DateUTC
12:11 AM,57.2,53.6,88,29.45,10.0,SSW,20.7,28.8,N/A,,Overcast,200,2013-01-31 05:11:00
12:54 AM,57.0,54.0,89,29.42,7.0,SSW,25.3,35.7,0.00,Rain,Light Rain,200,2013-01-31 05:54:00
1:54 AM,57.0,55.0,93,29.37,7.0,SSW,28.8,40.3,0.00,Rain,Light Rain,200,2013-01-31 06:54:00
2:54 AM,57.9,55.0,90,29.28,5.0,SSW,32.2,49.5,0.00,Rain,Light Rain,200,2013-01-31 07:54:00
3:54 AM,59.0,55.0,87,29.20,7.0,SSW,35.7,49.5,0.00,Rain,Light Rain,200,2013-01-31 08:54:00
4:54 AM,59.0,55.9,90,29.14,6.0,SSW,36.8,58.7,0.00,Rain,Light Rain,200,2013-01-31 09:54:00
5:44 AM,57.2,55.4,94,29.09,2.5,South,38.0,55.2,0.10,Rain,Rain,190,2013-01-31 10:44:00
5:54 AM,57.9,55.9,93,29.07,2.5,South,32.2,50.6,0.11,Rain,Rain,190,2013-01-31 10:54:00
6:01 AM,59.0,55.4,88,29.05,4.0,South,38.0,50.6,0.01,Rain,Light Rain,180,2013-01-31 11:01:00
6:54 AM,59.0,57.0,93,29.05,6.0,SSW,36.8,57.5,0.12,Rain,Light Rain,210,2013-01-31 11:54:00
7:21 AM,57.2,55.4,94,29.06,10.0,SSW,24.2,35.7,0.02,Rain,Light Rain,210,2013-01-31 12:21:00
7:54 AM,55.9,54.0,93,29.03,8.0,South,19.6,-,0.02,Rain,Light Rain,190,2013-01-31 12:54:00
8:54 AM,55.0,52.0,89,28.99,8.0,SSW,26.5,33.4,0.03,Rain,Light Rain,200,2013-01-31 13:54:00
9:54 AM,52.0,48.0,86,29.08,5.0,WNW,42.6,57.5,0.00,Rain,Light Rain,300,2013-01-31 14:54:00
9:57 AM,46.4,42.8,87,29.07,2.0,WNW,28.8,57.5,0.00,Rain,Light Rain,290,2013-01-31 14:57:00
9:58 AM,44.6,39.2,81,29.07,1.8,WNW,32.2,57.5,0.00,Rain,Heavy Rain,290,2013-01-31 14:58:00
10:06 AM,44.6,39.2,81,29.08,3.0,West,27.6,42.6,0.02,Rain,Light Rain,280,2013-01-31 15:06:00
10:13 AM,44.6,39.2,81,29.09,8.0,WNW,17.3,42.6,0.02,Rain,Light Rain,290,2013-01-31 15:13:00
10:54 AM,45.0,37.9,76,29.12,10.0,West,29.9,38.0,0.03,,Scattered Clouds,280,2013-01-31 15:54:00
11:54 AM,46.0,35.1,66,29.17,10.0,West,29.9,36.8,N/A,,Scattered Clouds,270,2013-01-31 16:54:00
12:54 PM,45.0,30.0,56,29.20,10.0,West,28.8,35.7,N/A,,Mostly Cloudy,280,2013-01-31 17:54:00
1:54 PM,46.0,24.1,42,29.23,10.0,West,28.8,41.4,N/A,,Mostly Cloudy,280,2013-01-31 18:54:00
2:54 PM,45.0,19.9,37,29.29,10.0,West,27.6,42.6,N/A,,Scattered Clouds,280,2013-01-31 19:54:00
3:54 PM,43.0,18.0,37,29.33,10.0,West,18.4,39.1,N/A,,Partly Cloudy,280,2013-01-31 20:54:00
4:54 PM,41.0,18.0,40,29.37,10.0,WNW,18.4,25.3,N/A,,Scattered Clouds,290,2013-01-31 21:54:00
5:54 PM,39.9,17.1,40,29.42,10.0,West,20.7,44.9,N/A,,Scattered Clouds,270,2013-01-31 22:54:00
6:54 PM,37.9,16.0,41,29.46,10.0,West,29.9,39.1,N/A,,Mostly Cloudy,280,2013-01-31 23:54:00
7:54 PM,37.0,14.0,39,29.49,10.0,West,19.6,36.8,N/A,,Partly Cloudy,280,2013-02-01 00:54:00
8:54 PM,36.0,12.9,39,29.52,10.0,West,21.9,35.7,N/A,,Mostly Cloudy,270,2013-02-01 01:54:00
9:54 PM,35.1,14.0,42,29.55,10.0,West,17.3,28.8,N/A,,Overcast,270,2013-02-01 02:54:00
10:54 PM,33.1,12.9,43,29.58,10.0,WNW,21.9,32.2,N/A,,Mostly Cloudy,290,2013-02-01 03:54:00
11:54 PM,32.0,14.0,48,29.59,10.0,West,15.0,27.6,N/A,,Partly Cloudy,270,2013-02-01 04:54:00